Regional Weather Roundup
Issued by NWS Memphis, TN

Home | Current Version | Previous Version | Text Only | Print | Product List | Glossary On
Versions: 1 2 3 4 5 6 7 8 9 10 11 12 13 14 15 16 17 18 19 20 21 22 23 24 25 26 27 28 29 30 31 32 33 34 35 36 37 38 39 40 41 42 43 44 45 46 47 48 49 50
000
ASUS44 KMEG 252010
RWRMEG
MEMPHIS CWA HOURLY WEATHER ROUNDUP
NATIONAL WEATHER SERVICE MEMPHIS TN
300 PM CDT SUN JUN 25 2017

...WEST TENNESSEE...

CITY           SKY/WX    TMP DP  RH WIND       PRES   REMARKS
MEMPHIS INTL   MOSUNNY   86  56  35 N10       30.21F
NWS MEMPHIS      N/A     84 N/A N/A MISG        N/A
JACKSON        SUNNY     84  52  33 N7        30.21F
COVINGTON      SUNNY     82  50  32 VRB6G12   30.21F
SOMERVILLE     SUNNY     82  50  32 VRB7G14   30.21F
BOLIVAR        SUNNY     82  50  32 VRB7      30.21F
LEXINGTON      SUNNY     81  52  36 N9        30.21F
SELMER         SUNNY     81  52  36 NE9       30.21F
SAVANNAH       SUNNY     82  50  32 NE10      30.20F
UNION CITY     SUNNY     82  48  30 W6        30.19F
PARIS          SUNNY     81  52  36 VRB5      30.20F
HUNTINGDON     SUNNY     82  50  32 N7G14     30.20F


...EASTERN ARKANSAS...

CITY           SKY/WX    TMP DP  RH WIND       PRES   REMARKS
JONESBORO      SUNNY     84  50  30 E6        30.21F
WEST MEMPHIS   SUNNY     83  59  44 VRB5      30.20F
BATESVILLE     SUNNY     82  50  32 SE3       30.23S
WALNUT RIDGE   SUNNY     84  54  34 SW6       30.21F
BLYTHEVILLE    SUNNY     83  49  30 S5        30.21F
SEARCY         SUNNY     85  56  37 E8        30.24F
STUTTGART      SUNNY    N/A N/A N/A NE8       30.22F
PINE BLUFF     SUNNY     83  60  45 N8        30.22F
MONTICELLO     SUNNY     83  58  42 NE6       30.21F


...NORTH MISSISSIPPI...

CITY           SKY/WX    TMP DP  RH WIND       PRES   REMARKS
TUPELO         SUNNY     83  53  35 N15       30.20F
OXFORD         SUNNY     82  54  36 NE10      30.23F
BATESVILLE     SUNNY     84  59  42 NE3       30.22F
OLIVE BRANCH   MOSUNNY  N/A N/A N/A NE12      30.21F
TUNICA           N/A     81  59  47 NE6       30.22F
CLARKSDALE       N/A     82  61  47 NE6       30.22F
CORINTH        SUNNY     82  50  32 N8G15     30.21S
GREENWOOD      CLOUDY    81  60  48 NE9       30.20F
COLUMBUS       MOSUNNY   75  66  71 N6        30.19F
STARKVILLE     CLOUDY    73  59  60 NE5       30.22F
GOLDEN TRIANGL MOSUNNY   73  61  64 N7        30.17F


...SOUTHEAST MISSOURI...

CITY           SKY/WX    TMP DP  RH WIND       PRES   REMARKS
KENNETT        SUNNY     84  50  30 NW6       30.19F
MALDEN         SUNNY     86  46  25 W8        30.21F
WEST PLAINS    MOSUNNY   84  46  26 N6        30.25F
POPLAR BLUFF   SUNNY     85  48  27 VRB5      30.19F
CAPE GIRARDEAU MOSUNNY   84  49  29 NW13G18   30.18F


...NORTHWEST ALABAMA...

CITY           SKY/WX    TMP DP  RH WIND       PRES   REMARKS
MUSCLE SHOALS  SUNNY     83  52  34 NE8       30.21F


...MIDDLE TENNESSEE...

CITY           SKY/WX    TMP DP  RH WIND       PRES   REMARKS
NASHVILLE      MOSUNNY   83  47  28 N15G25    30.20F
CLARKSVILLE    SUNNY     81  48  31 W13       30.20F
COLUMBIA       SUNNY     81  46  30 N8        30.19F


...WESTERN KENTUCKY...

CITY           SKY/WX    TMP DP  RH WIND       PRES   REMARKS
PADUCAH        SUNNY     84  52  33 NW7       30.19F
FORT CAMPBELL  SUNNY     81  48  32 W7        30.20F


...CENTRAL ARKANSAS...

CITY           SKY/WX    TMP DP  RH WIND       PRES   REMARKS
LITTLE ROCK    MOSUNNY   84  55  36 E9        30.22F


SKY/WX REPORTED AS FAIR MEANS FEW OR NO CLOUDS BELOW
12 THOUSAND FEET.





USA.gov is the U.S. government's official web portal to all federal, state and local government web resources and services.